TimeMST,TemperatureF,Dew PointF,Humidity,Sea Level PressureIn,VisibilityMPH,Wind Direction,Wind SpeedMPH,Gust SpeedMPH,PrecipitationIn,Events,Conditions,WindDirDegrees,DateUTC
12:53 AM,14.0,9.0,80,30.41,10.0,NNE,4.6,-,N/A,,Overcast,20,2013-03-05 07:53:00
1:53 AM,14.0,9.0,80,30.40,9.0,Calm,Calm,-,N/A,,Overcast,0,2013-03-05 08:53:00
2:50 AM,12.2,8.6,85,30.22,7.0,Calm,Calm,-,N/A,,Overcast,0,2013-03-05 09:50:00
2:53 AM,12.9,8.1,81,30.39,7.0,SSE,3.5,-,N/A,,Overcast,160,2013-03-05 09:53:00
3:03 AM,12.2,6.8,79,30.20,10.0,South,5.8,-,N/A,,Mostly Cloudy,170,2013-03-05 10:03:00
3:53 AM,10.9,3.9,73,30.39,10.0,SSE,5.8,-,N/A,,Clear,150,2013-03-05 10:53:00
4:53 AM,10.9,6.1,81,30.39,10.0,SSE,8.1,-,N/A,,Clear,160,2013-03-05 11:53:00
5:53 AM,8.1,1.0,73,30.40,10.0,Calm,Calm,-,N/A,,Clear,0,2013-03-05 12:53:00
6:53 AM,9.0,1.9,73,30.39,10.0,Calm,Calm,-,N/A,,Clear,0,2013-03-05 13:53:00
7:53 AM,15.1,5.0,64,30.38,10.0,Calm,Calm,-,N/A,,Clear,0,2013-03-05 14:53:00
8:53 AM,18.0,7.0,62,30.38,10.0,SSE,4.6,-,N/A,,Clear,160,2013-03-05 15:53:00
9:53 AM,24.1,10.9,57,30.35,10.0,ESE,5.8,-,N/A,,Clear,120,2013-03-05 16:53:00
10:53 AM,28.0,12.0,51,30.32,10.0,SE,9.2,-,N/A,,Clear,130,2013-03-05 17:53:00
11:53 AM,30.9,10.9,43,30.28,10.0,SSE,12.7,-,N/A,,Clear,160,2013-03-05 18:53:00
12:53 PM,32.0,10.0,40,30.25,10.0,SE,12.7,19.6,N/A,,Clear,130,2013-03-05 19:53:00
1:53 PM,32.0,10.0,40,30.22,10.0,ESE,10.4,-,N/A,,Clear,120,2013-03-05 20:53:00
2:53 PM,34.0,10.0,37,30.20,10.0,ESE,9.2,-,N/A,,Clear,120,2013-03-05 21:53:00
3:53 PM,34.0,9.0,35,30.20,10.0,East,8.1,-,N/A,,Clear,100,2013-03-05 22:53:00
4:53 PM,34.0,9.0,35,30.18,10.0,ESE,6.9,-,N/A,,Clear,120,2013-03-05 23:53:00
5:53 PM,30.9,10.0,42,30.19,10.0,ESE,3.5,-,N/A,,Clear,120,2013-03-06 00:53:00
6:53 PM,30.0,10.0,43,30.19,10.0,Calm,Calm,-,N/A,,Clear,0,2013-03-06 01:53:00
7:53 PM,28.9,10.0,45,30.17,10.0,Calm,Calm,-,N/A,,Clear,0,2013-03-06 02:53:00
8:53 PM,24.1,12.9,62,30.16,10.0,NNW,3.5,-,N/A,,Clear,330,2013-03-06 03:53:00
9:53 PM,23.0,12.9,65,30.13,10.0,NNW,4.6,-,N/A,,Clear,330,2013-03-06 04:53:00
10:53 PM,23.0,12.0,63,30.10,10.0,West,3.5,-,N/A,,Clear,270,2013-03-06 05:53:00
11:53 PM,21.0,12.0,68,30.09,10.0,WNW,4.6,-,N/A,,Clear,300,2013-03-06 06:53:00